星链-33925 (STARLINK-33925)

导读

STARLINK-33925是美国SpaceX星链星座的成员卫星,于2025年5月2日发射升空。星链计划旨在构建全球卫星互联网星座,为全球提供低延迟、高速率的宽带互联网服务,覆盖偏远地区及网络基础设施薄弱区域。该卫星是星链大规模组网的组成部分,延续星链卫星的设计方案,承担全球网络覆盖补网组网任务,进一步扩展星链星座的服务能力与覆盖范围。

Basic Information
目录编号:
63793
目录名称:
STARLINK-33925
国际标识:
2025-091U
轨道中心:
EARTH
卫星名称:
星链-33925
卫星全名:
星链-33925 (STARLINK-33925)
卫星状态:
在轨 (已飞行490 天)
发射日期:
2025-05-02 UTC
国别 :
美国 (US)
星等 :
--
Orbit Information
数据来源 国际轨道数据
星历时间: 2026-09-04T09:23:31+0800
10小时前
查看轨道信息
半长轴: 6861.176km
偏心率: 0.0001331
轨道倾角: 43.002°
近地点辐角 273.365°
升交点赤经 124.994°
平近点角 86.704°
近地点: 482.125km
远地点: 483.953km
周期: 94.267分钟
每日圈数: 15.275835
Detailed Information
固有亮度:
5
最大亮度:
2.5
卫星平台:
Starlink V1.0
覆盖范围:
全球
运营商:
太空探索技术公司
运营商所在国:
美国
制造商(研发单位):
太空探索技术公司
制造商所在国:
美国
使用方式:
暂无
Satellite Introduction
Starlink 计划是 SpaceX 推出的全球卫星互联网项目,通过发射低轨道卫星,为全球尤其是偏远地区提供高速、低延迟的互联网服务。自 2019 年起,Starlink 已部署数千颗卫星,旨在缩小全球数字鸿沟,推动互联网普及。该项目还为军事、航空等行业提供通信支持,带来广泛经济效益。
2D Orbit Map
3D Orbit Map
Orbit Altitude Analysis Chart
Orbit Inclination Analysis Chart
Orbit Comprehensive Analysis Chart
View Comprehensive Chart
Conjunction Data List
Event ID Objects TCA Miss Dist (km) Collision Risk Probability Collision Risk Index (CRI) Action
CDM_260905-012905-613606-379321
2026-09-05T
01:29:17+0000
0.415 km
远距离
2.110339E-4 高风险 0.81
CDM_260827-192406-379306-751021
2026-08-27T
19:24:55+0000
1.174 km
极远距离
9.980936E-6 低风险 0.55
CDM_260905-104205-966106-379321
2026-09-05T
10:42:49+0000
1.028 km
极远距离
5.01086E-6 低风险 0.49
CDM_260905-030305-613606-379321
2026-09-05T
03:03:26+0000
1.574 km
极远距离
3.691921E-6 低风险 0.46
CDM_260827-203905-821306-379321
2026-08-27T
20:39:26+0000
1.698 km
极远距离
3.462112E-6 低风险 0.46
CDM_260827-190505-821306-379321
2026-08-27T
19:05:17+0000
1.891 km
极远距离
2.556768E-6 低风险 0.43
CDM_260904-235505-613606-379321
2026-09-04T
23:55:07+0000
2.195 km
极远距离
1.52875E-6 低风险 0.39